Current Version              Previous Version:    01  02  03  04  05  06  07  08  09  10  11  12  13  14  15  16  17  18  19  20  21  22  23  24  25  26  27  28  29  30  
   31  32  33  34  35  36  37  38  39  40  41  42  43  44  45  46  47  48  49  50  51  52  53  54  55  56  57  58  59  60  

[Printable]
218
ASUS44 KLUB 220910
RWRTX
WEST TEXAS WEATHER ROUNDUP
NATIONAL WEATHER SERVICE LUBBOCK TX
400 AM CDT MON SEP 22 2014

NOTE: "FAIR" INDICATES FEW OR NO CLOUDS BELOW 12,000 FEET WITH NO
SIGNIFICANT WEATHER AND/OR OBSTRUCTIONS TO VISIBILITY.

TXZ004-006>008-010-012-014-016-OKZ002-221000-
TEXAS PANHANDLE/OKLAHOMA PANHANDLE

CITY           SKY/WX    TMP DP  RH WIND       PRES   REMARKS
AMARILLO       MOCLDY    60  55  83 SE7       30.31S
BORGER         MOCLDY    64  52  64 CALM      30.30F
CANADIAN       MOCLDY    60  56  87 CALM      30.27F
DALHART        CLOUDY    65  54  67 S7        30.33F
DUMAS          MOCLDY    63  54  74 SE5       30.32S
GUYMON         CLOUDY    60  47  61 S6        30.30F
HEREFORD       MOCLDY    62  60  93 E5        30.32S
PAMPA          CLOUDY    58  53  81 CALM      30.32S
PERRYTON       CLOUDY    59  47  64 SE5       30.30S
$$

TXZ026-029-035-045-048-221000-
SOUTHERN PANHANDLE/SOUTH PLAINS/ROLLING PLAINS

CITY           SKY/WX    TMP DP  RH WIND       PRES   REMARKS
CHILDRESS      CLOUDY    70  54  56 NE6       30.23F
SEMINOLE       MOCLDY    67  65  96 CALM      30.25S
LUBBOCK        MOCLDY    65  62  90 NE8       30.25F
PLAINVIEW      CLOUDY    63  59  88 E6        30.27S
SNYDER         MOCLDY    69  67  94 NE7       30.21S
$$

TXZ052-054-060>062-072-078-127-140-154-169-221000-
PERMIAN BASIN/CONCHO VALLEY/BIG COUNTRY/EDWARDS PLATEAU

CITY           SKY/WX    TMP DP  RH WIND       PRES   REMARKS
ABILENE        MOCLDY    72  67  84 CALM      30.17S
BIG SPRING     CLOUDY    74  71  89 NE8       30.22R
BRADY          CLEAR     70  64  83 CALM      30.15S
BROWNWOOD      MOCLDY    68  66  94 CALM      30.14S
JUNCTION       PTCLDY    68  64  87 NW3       30.14F
MIDLAND        CLOUDY    71  68  90 NE10      30.20S
ODESSA         CLOUDY    70  67  90 E9        30.21S
SAN ANGELO     CLOUDY    72  67  84 CALM      30.15S
SONORA         PTCLDY    70  63  78 CALM      30.20S
SWEETWATER     MOCLDY    71  71 100 N3        30.22S
WINK           CLOUDY    71  70  96 CALM      30.18S
$$

TXZ055-058-074-075-080-082-221000-
FAR WEST/SOUTHWEST MOUNTAINS/TRANS PECOS

CITY           SKY/WX    TMP DP  RH WIND       PRES   REMARKS
ALPINE         CLOUDY    68  61  78 E7        30.29F
DRYDEN           N/A     78  70  76 NE8       30.13S
EL PASO        CLOUDY    72  63  73 E5        30.18S
FORT STOCKTON  CLOUDY    69  68  96 E7        30.18F
GUADALUPE PASS LGT RAIN  62  32  32 E31         N/A  VSB 1/4
MARFA          CLOUDY    64  63  94 CALM      30.28S
PECOS          CLOUDY    69  67  94 E12       30.17S
PRESIDIO       PTSUNNY   75  65  69 NE12G17   30.11S
$$

TXZ014-016-019-021>030-083-221000
TEXAS TECH WEST TEXAS MESONET/TEXAS PANHANDLE/NORTHERN SOUTH PLAINS

CITY           SKY/WX    TMP DP  RH WIND       PRES   REMARKS
ABERNATHY 5ENE   N/A     63  60  90 NE7       30.28S
AMARILLO 9NNE    N/A     64  54  68 SE7       30.30S
AMARILLO 7SSE    N/A     60  56  89 E2        30.32S
AMHERST 1NE      N/A     63  61  96 NE6       30.28S
BOOTLEG 11WNW    N/A     61  59  94 E9        30.34F
CANADIAN 6E      N/A     58  51  77 E5        30.26F
CAPROCK CYN SP   N/A     66  56  70 NE1       30.27F
CHILDRESS 2NNE   N/A     68  55  63 NE6       30.23S
CLARENDON 2WSW   N/A     63  54  74 CALM      30.28S
CLAUDE 12SW      N/A     61  55  80 E6        30.30S
DIMMITT 2NE      N/A     61  58  89 E9        30.31S
FLOYDADA 2NNE    N/A     62  60  93 NE6       30.26F
FRIONA 2NE       N/A     62  59  92 E7        30.32F
GOODLETT 3W      N/A     66  56  69 N5        30.21R
HART 3N          N/A     61  58  87 E7        30.30S
HEREFORD 2NW     N/A     62  57  84 E3        30.31S
MCLEAN 1E        N/A     61  52  70 NE5       30.27S
MEMPHIS 1NE      N/A     66  54  66 N5        30.25S
MULESHOE 2SSW    N/A     63  62  95 NE6       30.29S
OLTON 6S         N/A     62  58  87 NE7       30.28S
PALO DURO SP     N/A     63  53  70 E5        30.32S
PAMPA 2E         N/A     56  52  84 E1        30.30S
PLAINVIEW 1S     N/A     63  59  88 NE7       30.27S
SILVERTON 7ESE   N/A     61  56  83 E8        30.28S
TULIA 2ENE       N/A     60  57  91 NE6       30.30S
TURKEY 2WSW      N/A     65  59  79 NE3       30.25F
UMBARGER 3NNE    N/A     60  57  89 E5        30.32S
$$

TXZ033>036-039>041-045>048-221000
TEXAS TECH WEST TEXAS MESONET/SOUTH PLAINS

CITY           SKY/WX    TMP DP  RH WIND       PRES   REMARKS
AIKEN 3WSW       N/A     62  60  94 NE6       30.29S
ANDREWS 2NE      N/A     68  65  89 NE6       30.23S
ANTON 6SSW       N/A     64  62  94 NE6       30.27S
BROWNFIELD 2S    N/A     66  64  94 NE10      30.24F
DENVR CTY 7WNW   N/A     65  63  93 NE7       30.25F
GAIL 2ESE        N/A     67  65  93 N7        30.20F
LAMESA 2SE       N/A     67  66  94 NE7       30.23R
LEVELLAND 4S     N/A     64  62  93 NE8       30.26F
LUBBOCK 3WNW     N/A     65  62  91 NE6       30.26S
MORTON 1ENE      N/A     64  63  97 E8        30.27F
ODONNELL 1N      N/A     65  63  93 NE9       30.24R
PLAINS 3N        N/A     65  64  95 NE9       30.26F
RALLS 1SE        N/A     65  63  92 NE8       30.26F
REESE CENTER     N/A     64  62  95 NE6       30.26S
SEAGRAVES 1SW    N/A     67  65  95 NE6       30.24S
SEMINOLE 2NNE    N/A     66  64  93 NE7       30.23F
SLATON 2NE       N/A     65  64  96 NE6       30.25S
SNYDER 3E        N/A     68  66  94 NE12      30.20S
SUNDOWN 8SW      N/A     65  64  96 E7        30.26F
TAHOKA 3NNE      N/A     65  63  94 NE8       30.23F
WOLFFORTH 6SSW   N/A     65  64  98 NE7       30.26S
$$

TXZ031-032-036>038-042>044-221000-
TEXAS TECH WEST TEXAS MESONET/ROLLING PLAINS

CITY           SKY/WX    TMP DP  RH WIND       PRES   REMARKS
ASPERMONT 3NE    N/A     71  67  88 NE7       30.19R
FLUVANNA 3WNW    N/A     67  64  90 NE10      30.21S
GRAHAM 5SSW      N/A     66  64  92 NE3       30.22S
GUTHRIE 10WSW    N/A     68  61  77 N6        30.20F
HASKELL 1NW      N/A     70  66  89 E9        30.17S
JAYTON 1SSE      N/A     69  66  89 N7        30.20S
KNOX CITY 3NW    N/A     70  62  74 NE7       30.19R
LK A HENRY 1NW   N/A     69  67  93 NE9       30.21S
NORTHFIELD 1S    N/A     65  61  87 NW1       30.23S
ODELL 4ENE       N/A     68  55  63 NE3       30.22R
PADUCAH 10SW     N/A     65  62  89 NE5       30.21F
POST 1NE         N/A     67  67  98 N5        30.23S
RRING SPRGS 3N   N/A     66  62  87 N7        30.24F
SEYMOUR 3NW      N/A     71  57  60 NE8       30.18S
SPUR 1W          N/A     68  64  87 NE8       30.21S
WEINERT 2NNE     N/A     70  63  78 E8        30.18S
WHITE RVR 6NE    N/A     67  64  90 NE12      30.22F
$$

TXZ052-054-060>062-072-078-127-140-154-169-221000-
TEXAS TECH WEST TEXAS MESONET/PERMIAN BASIN/
CONCHO VALLEY/BIG COUNTRY/EDWARDS PLATEAU

CITY           SKY/WX    TMP DP  RH WIND       PRES   REMARKS
COYANOSA 2N      N/A     69  68  98 E5        30.18S
JUNCTION 1SSW    N/A     64  60  86 CALM      30.15S
MERTZON 3NNE     N/A     70  65  85 CALM      30.18S
SAN ANGELO 7NW   N/A     72  63  73 E1        30.15F
STRLNG CT 4WSW   N/A     71  70  98 CALM      30.18F
ST LAWRNCE 5SW   N/A     69  68  97 E5        30.19S
SWEETWATR 11SW   N/A     69  68  97 N9        30.21S
WALL 1E          N/A     70  65  84 SE3       30.16S
$$

TXZ055-058-074-075-080-082-221000-
TEXAS TECH WEST TEXAS MESONET/FAR WEST/SOUTHWEST MOUNTAINS/TRANS PECOS

CITY           SKY/WX    TMP DP  RH WIND       PRES   REMARKS
PRSMN GAP BBNP   N/A     71  67  87 N6        30.14S
GUADLPE MTN NP   N/A     61  60  96 E6        30.32S
$$